contact:dominique.lefevre@mio.osupytheas.fr, maurice.libes@osupytheas.fr, didier.mallarino@osupytheas.fr
Project:EMSO http://www.emso-fr.org/EMSO-France
Depth: 2436.0 m
Title:EMSO Ligure Ouest : Data MII capteur AQUADOPP
Date,Latitude,Longitude,X_East,Y_North,Z_Up,Amplitude_X,Amplitude_Y,Amplitude_Z,Batterie,SoundSpeed,Heading,Pitch,Roll,Pressure,TIS,Speed,Direction
, degrees North, degrees East, m.s-1, m.s-1,m.s-1, 1, 1, 1, Volt, m.s-1, degree, degree, degree, dbar, degree_C, m.s-1, degree
2021-06-25T00:04:03,42.805,6.029,-0.006,-0.018,-0.003,105.0,106.0,103.0,13.4,1505.2,325.2,-0.8,1.8,2470.577,13.28,0.018,198.4
2021-06-25T00:07:03,42.805,6.029,-0.02,-0.016,0.003,105.0,106.0,104.0,13.4,1505.2,326.4,-0.8,1.8,2470.555,13.28,0.025,231.3
2021-06-25T00:10:03,42.805,6.029,-0.019,-0.007,-0.045,105.0,105.0,102.0,13.4,1505.2,330.4,-0.8,1.8,2470.525,13.28,0.02,249.8
2021-06-25T00:13:03,42.805,6.029,-0.03,-0.003,0.011,106.0,105.0,104.0,13.4,1505.2,326.4,-0.8,1.8,2470.535,13.28,0.03,264.3
2021-06-25T00:16:03,42.805,6.029,-0.011,-0.028,-0.019,104.0,103.0,103.0,13.4,1505.2,328.7,-0.7,1.8,2470.503,13.28,0.03,201.4
2021-06-25T00:19:03,42.805,6.029,-0.015,-0.027,-0.016,107.0,105.0,103.0,13.4,1505.2,326.3,-0.8,1.8,2470.496,13.28,0.03,209.1
2021-06-25T00:22:03,42.805,6.029,0.005,-0.025,-0.025,105.0,105.0,104.0,13.4,1505.2,325.0,-0.8,1.8,2470.494,13.28,0.025,168.7
2021-06-25T00:25:03,42.805,6.029,-0.001,-0.019,0.004,105.0,105.0,102.0,13.3,1505.2,329.5,-0.8,1.8,2470.517,13.28,0.019,183.0
2021-06-25T00:28:03,42.805,6.029,0.006,-0.018,-0.008,105.0,106.0,104.0,13.3,1505.2,325.9,-0.8,1.8,2470.528,13.28,0.018,161.6
2021-06-25T00:31:03,42.805,6.029,-0.003,-0.018,-0.024,105.0,106.0,102.0,13.4,1505.2,325.1,-0.7,1.9,2470.467,13.28,0.018,189.5
2021-06-25T00:34:03,42.805,6.029,-0.001,-0.02,-0.009,106.0,106.0,102.0,13.3,1505.2,326.6,-0.8,1.8,2470.503,13.28,0.02,182.9
2021-06-25T00:37:03,42.805,6.029,0.004,-0.01,0.006,105.0,105.0,103.0,13.4,1505.2,324.9,-0.8,1.8,2470.486,13.28,0.01,158.2
2021-06-25T00:40:03,42.805,6.029,-0.01,-0.025,-0.008,106.0,105.0,102.0,13.4,1505.2,327.2,-0.7,1.9,2470.511,13.28,0.026,201.8
2021-06-25T00:43:03,42.805,6.029,-0.009,-0.007,-0.006,105.0,105.0,104.0,13.4,1505.2,328.9,-0.8,1.8,2470.516,13.28,0.011,232.1
2021-06-25T00:46:03,42.805,6.029,-0.002,-0.025,-0.012,105.0,106.0,104.0,13.3,1505.2,326.0,-0.7,1.9,2470.489,13.28,0.025,184.6
2021-06-25T00:49:03,42.805,6.029,-0.001,-0.022,-0.024,104.0,104.0,105.0,13.3,1505.2,328.0,-0.7,1.8,2470.487,13.28,0.022,182.6
2021-06-25T00:52:03,42.805,6.029,-0.003,-0.012,-0.014,105.0,106.0,103.0,13.3,1505.2,327.8,-0.7,1.8,2470.476,13.28,0.012,194.0
2021-06-25T00:55:03,42.805,6.029,-0.008,0.003,0.006,105.0,105.0,104.0,13.4,1505.2,325.1,-0.7,1.8,2470.464,13.28,0.008,290.6
2021-06-25T00:58:03,42.805,6.029,-0.021,0.004,-0.003,105.0,105.0,104.0,13.4,1505.2,326.7,-0.7,1.8,2470.5,13.28,0.021,280.8
2021-06-25T01:04:03,42.805,6.029,-0.01,0.005,-0.017,104.0,105.0,103.0,13.3,1505.2,329.4,-0.8,1.8,2470.499,13.28,0.011,296.6
2021-06-25T01:07:03,42.805,6.029,-0.01,-0.006,0.013,106.0,105.0,104.0,13.4,1505.2,326.4,-0.8,1.8,2470.503,13.28,0.011,239.0
2021-06-25T01:10:03,42.805,6.029,0.005,-0.022,0.005,104.0,105.0,103.0,13.4,1505.2,326.8,-0.8,1.8,2470.482,13.28,0.022,167.2
2021-06-25T01:13:03,42.805,6.029,-0.014,0.002,-0.033,107.0,104.0,102.0,13.4,1505.2,328.5,-0.7,1.8,2470.489,13.28,0.014,278.1
2021-06-25T01:16:03,42.805,6.029,-0.008,-0.021,-0.008,105.0,104.0,104.0,13.4,1505.2,327.3,-0.8,1.8,2470.471,13.28,0.022,200.9
2021-06-25T01:19:03,42.805,6.029,-0.009,-0.021,-0.017,105.0,105.0,103.0,13.4,1505.2,326.5,-0.7,1.8,2470.497,13.28,0.022,203.2
2021-06-25T01:22:03,42.805,6.029,-0.006,-0.006,-0.058,105.0,105.0,103.0,13.4,1505.2,326.0,-0.7,1.8,2470.464,13.28,0.008,225.0
2021-06-25T01:25:03,42.805,6.029,0.003,-0.008,-0.007,106.0,104.0,104.0,13.3,1505.2,325.0,-0.8,1.8,2470.435,13.28,0.008,159.4
2021-06-25T01:28:03,42.805,6.029,-0.007,-0.001,0.0,106.0,105.0,104.0,13.4,1505.2,327.0,-0.8,1.8,2470.487,13.29,0.007,261.9
2021-06-25T01:31:03,42.805,6.029,-0.021,-0.021,0.007,108.0,105.0,102.0,13.4,1505.2,325.1,-0.7,1.8,2470.445,13.29,0.029,225.0
2021-06-25T01:34:03,42.805,6.029,-0.006,-0.025,-0.005,105.0,107.0,104.0,13.4,1505.2,325.4,-0.7,1.8,2470.445,13.29,0.025,193.5
2021-06-25T01:37:03,42.805,6.029,-0.013,-0.023,-0.004,106.0,105.0,104.0,13.4,1505.2,325.6,-0.8,1.8,2470.46,13.29,0.026,209.5
2021-06-25T01:40:03,42.805,6.029,0.011,-0.017,0.003,105.0,106.0,104.0,13.4,1505.2,327.1,-0.7,1.9,2470.443,13.28,0.02,147.1
2021-06-25T01:43:03,42.805,6.029,-0.003,0.013,0.002,106.0,105.0,104.0,13.4,1505.2,327.9,-0.7,1.8,2470.461,13.28,0.013,347.0
2021-06-25T01:46:03,42.805,6.029,-0.015,-0.026,-0.024,103.0,105.0,103.0,13.4,1505.2,328.0,-0.8,1.8,2470.472,13.28,0.03,210.0
2021-06-25T01:49:03,42.805,6.029,-0.005,0.004,-0.019,106.0,106.0,102.0,13.3,1505.2,327.1,-0.8,1.8,2470.473,13.28,0.006,308.7
2021-06-25T01:52:03,42.805,6.029,-0.007,-0.021,-0.042,105.0,105.0,104.0,13.3,1505.2,324.6,-0.7,1.8,2470.435,13.28,0.022,198.4
2021-06-25T01:55:03,42.805,6.029,-0.007,-0.016,0.014,104.0,105.0,103.0,13.4,1505.2,330.4,-0.8,1.9,2470.478,13.28,0.017,203.6
2021-06-25T01:58:03,42.805,6.029,-0.015,-0.012,-0.003,105.0,104.0,103.0,13.4,1505.2,328.9,-0.8,1.8,2470.448,13.28,0.019,231.3
2021-06-25T02:04:03,42.805,6.029,-0.013,-0.012,-0.005,106.0,104.0,102.0,13.4,1505.2,327.2,-0.8,1.9,2470.504,13.28,0.017,227.3
2021-06-25T02:07:03,42.805,6.029,-0.008,-0.018,-0.02,105.0,107.0,103.0,13.3,1505.2,326.1,-0.7,1.8,2470.47,13.28,0.019,204.0
2021-06-25T02:10:03,42.805,6.029,-0.012,-0.005,-0.01,105.0,104.0,103.0,13.4,1505.2,326.9,-0.8,1.8,2470.463,13.28,0.013,247.4
2021-06-25T02:13:03,42.805,6.029,0.0,-0.01,0.007,104.0,104.0,102.0,13.4,1505.2,327.9,-0.8,1.8,2470.479,13.28,0.01,180.0
2021-06-25T02:16:03,42.805,6.029,-0.007,-0.014,-0.032,105.0,103.0,104.0,13.3,1505.2,329.8,-0.8,1.8,2470.447,13.28,0.015,206.6
2021-06-25T02:19:03,42.805,6.029,0.007,-0.004,-0.002,106.0,105.0,107.0,13.4,1505.2,327.1,-0.7,1.8,2470.459,13.28,0.008,119.7
2021-06-25T02:22:03,42.805,6.029,-0.015,-0.011,0.009,106.0,105.0,101.0,13.4,1505.2,325.6,-0.7,1.8,2470.469,13.28,0.018,233.7
2021-06-25T02:25:03,42.805,6.029,-0.001,-0.018,-0.012,105.0,105.0,103.0,13.4,1505.2,325.5,-0.8,1.8,2470.488,13.28,0.018,183.2
2021-06-25T02:28:03,42.805,6.029,0.0,-0.026,-0.019,104.0,104.0,102.0,13.3,1505.2,326.5,-0.7,1.9,2470.407,13.28,0.026,180.0
2021-06-25T02:31:03,42.805,6.029,-0.002,-0.022,-0.019,105.0,103.0,103.0,13.4,1505.2,326.0,-0.8,1.8,2470.462,13.28,0.022,185.2
2021-06-25T02:34:03,42.805,6.029,0.008,-0.023,0.002,106.0,104.0,104.0,13.3,1505.2,328.1,-0.8,1.8,2470.401,13.28,0.024,160.8
2021-06-25T02:37:03,42.805,6.029,-0.002,-0.025,0.007,104.0,103.0,105.0,13.4,1505.2,326.3,-0.8,1.8,2470.432,13.28,0.025,184.6
2021-06-25T02:40:03,42.805,6.029,0.0,-0.011,0.008,106.0,103.0,103.0,13.4,1505.2,325.0,-0.8,1.8,2470.433,13.28,0.011,180.0
2021-06-25T02:43:03,42.805,6.029,-0.018,-0.004,-0.003,107.0,108.0,102.0,13.4,1505.2,327.3,-0.7,1.9,2470.463,13.28,0.018,257.5
2021-06-25T02:46:03,42.805,6.029,0.009,-0.038,-0.012,105.0,106.0,102.0,13.4,1505.2,328.0,-0.8,1.8,2470.49,13.28,0.039,166.7
2021-06-25T02:49:03,42.805,6.029,-0.009,0.0,-0.017,105.0,104.0,104.0,13.4,1505.2,326.9,-0.7,1.8,2470.402,13.28,0.009,270.0
2021-06-25T02:52:03,42.805,6.029,-0.007,0.004,-0.013,104.0,106.0,104.0,13.4,1505.2,326.0,-0.8,1.8,2470.424,13.28,0.008,299.7
2021-06-25T02:55:03,42.805,6.029,-0.011,-0.007,-0.002,104.0,104.0,105.0,13.4,1505.2,329.4,-0.8,1.8,2470.431,13.28,0.013,237.5
2021-06-25T02:58:03,42.805,6.029,0.019,-0.024,-0.018,107.0,103.0,103.0,13.4,1505.2,326.9,-0.7,1.8,2470.439,13.28,0.03,141.6
2021-06-25T03:04:03,42.805,6.029,0.0,-0.002,-0.016,106.0,104.0,103.0,13.3,1505.2,329.5,-0.8,1.8,2470.499,13.28,0.002,180.0
2021-06-25T03:07:03,42.805,6.029,-0.011,-0.024,0.0,106.0,105.0,103.0,13.3,1505.2,328.2,-0.8,1.8,2470.455,13.28,0.026,204.6
2021-06-25T03:10:03,42.805,6.029,-0.006,-0.014,-0.015,107.0,104.0,103.0,13.4,1505.2,328.1,-0.7,1.8,2470.419,13.28,0.015,203.2
2021-06-25T03:13:03,42.805,6.029,-0.022,-0.005,-0.002,104.0,105.0,104.0,13.4,1505.2,328.5,-0.8,1.8,2470.476,13.28,0.022,257.2
2021-06-25T03:16:03,42.805,6.029,-0.023,-0.009,-0.016,104.0,105.0,103.0,13.3,1505.2,328.5,-0.7,1.8,2470.484,13.28,0.024,248.6
2021-06-25T03:19:03,42.805,6.029,-0.011,-0.019,0.009,107.0,105.0,104.0,13.4,1505.2,328.3,-0.8,1.8,2470.51,13.28,0.021,210.1
2021-06-25T03:22:03,42.805,6.029,0.001,-0.001,-0.012,104.0,104.0,103.0,13.4,1505.2,329.3,-0.7,1.8,2470.488,13.28,0.001,135.0
2021-06-25T03:25:03,42.805,6.029,-0.013,-0.013,-0.055,106.0,106.0,103.0,13.4,1505.2,328.1,-0.8,1.8,2470.468,13.28,0.018,225.0
2021-06-25T03:28:03,42.805,6.029,-0.018,-0.013,-0.014,105.0,105.0,104.0,13.3,1505.2,329.9,-0.8,1.8,2470.45,13.28,0.022,234.2
2021-06-25T03:31:03,42.805,6.029,-0.003,-0.007,-0.027,106.0,105.0,104.0,13.3,1505.2,326.4,-0.8,1.8,2470.475,13.28,0.007,203.2
2021-06-25T03:34:03,42.805,6.029,0.003,0.001,0.018,105.0,105.0,102.0,13.4,1505.2,328.6,-0.8,1.8,2470.471,13.28,0.003,71.6
2021-06-25T03:37:03,42.805,6.029,0.002,-0.004,-0.012,108.0,105.0,103.0,13.3,1505.2,326.4,-0.8,1.9,2470.468,13.28,0.004,153.4
2021-06-25T03:40:03,42.805,6.029,0.002,-0.029,-0.012,106.0,106.0,103.0,13.4,1505.2,326.7,-0.7,1.8,2470.461,13.28,0.029,176.1
2021-06-25T03:43:03,42.805,6.029,-0.011,-0.019,0.019,105.0,105.0,103.0,13.4,1505.2,326.6,-0.7,1.8,2470.458,13.28,0.021,210.1
2021-06-25T03:46:03,42.805,6.029,0.015,-0.024,0.005,105.0,105.0,103.0,13.4,1505.2,327.4,-0.8,1.8,2470.453,13.28,0.028,148.0
2021-06-25T03:49:03,42.805,6.029,-0.002,-0.016,0.007,107.0,106.0,103.0,13.4,1505.2,328.3,-0.7,1.8,2470.5,13.28,0.016,187.1
2021-06-25T03:52:03,42.805,6.029,0.0,-0.021,-0.004,105.0,104.0,104.0,13.4,1505.2,324.9,-0.8,1.8,2470.469,13.28,0.021,180.0
2021-06-25T03:55:03,42.805,6.029,-0.008,-0.031,-0.004,106.0,104.0,103.0,13.4,1505.2,324.6,-0.8,1.8,2470.478,13.28,0.032,194.5
2021-06-25T03:58:03,42.805,6.029,-0.009,-0.019,0.002,105.0,105.0,103.0,13.3,1505.2,328.2,-0.8,1.8,2470.519,13.28,0.021,205.3
2021-06-25T04:04:03,42.805,6.029,-0.005,-0.009,-0.001,107.0,104.0,105.0,13.4,1505.2,327.8,-0.8,1.8,2470.481,13.28,0.01,209.1
2021-06-25T04:07:03,42.805,6.029,-0.001,-0.025,0.017,105.0,105.0,103.0,13.4,1505.2,325.3,-0.8,1.8,2470.513,13.28,0.025,182.3
2021-06-25T04:10:03,42.805,6.029,-0.006,-0.033,-0.024,105.0,106.0,103.0,13.4,1505.2,326.8,-0.8,1.8,2470.477,13.28,0.033,190.3
2021-06-25T04:13:03,42.805,6.029,-0.007,-0.013,-0.02,106.0,105.0,103.0,13.3,1505.2,324.9,-0.7,1.8,2470.499,13.28,0.014,208.3
2021-06-25T04:16:03,42.805,6.029,0.003,-0.008,0.014,106.0,104.0,104.0,13.3,1505.2,327.2,-0.8,1.9,2470.496,13.28,0.008,159.4
2021-06-25T04:19:03,42.805,6.029,-0.01,0.002,-0.027,105.0,105.0,102.0,13.3,1505.2,326.2,-0.8,1.8,2470.487,13.28,0.01,281.3
2021-06-25T04:22:03,42.805,6.029,0.001,-0.011,-0.017,104.0,104.0,104.0,13.4,1505.2,329.6,-0.8,1.8,2470.528,13.28,0.011,174.8
2021-06-25T04:25:03,42.805,6.029,-0.007,-0.01,-0.02,106.0,106.0,105.0,13.3,1505.2,325.1,-0.7,1.8,2470.51,13.28,0.012,215.0
2021-06-25T04:28:03,42.805,6.029,0.008,-0.009,-0.017,105.0,103.0,103.0,13.4,1505.2,325.6,-0.8,1.8,2470.507,13.28,0.012,138.4
2021-06-25T04:31:03,42.805,6.029,0.005,-0.018,0.007,106.0,105.0,103.0,13.3,1505.2,326.6,-0.7,1.8,2470.482,13.28,0.018,164.5
2021-06-25T04:34:03,42.805,6.029,-0.007,-0.007,-0.01,106.0,106.0,103.0,13.4,1505.2,328.4,-0.7,1.8,2470.478,13.28,0.009,225.0
2021-06-25T04:37:03,42.805,6.029,0.0,-0.006,-0.009,106.0,105.0,103.0,13.4,1505.2,324.7,-0.8,1.8,2470.511,13.29,0.006,180.0
2021-06-25T04:40:03,42.805,6.029,-0.001,-0.007,0.004,112.0,105.0,104.0,13.3,1505.2,325.8,-0.7,1.8,2470.483,13.28,0.007,188.1
2021-06-25T04:43:03,42.805,6.029,-0.01,-0.012,-0.039,105.0,106.0,103.0,13.3,1505.2,329.1,-0.7,1.8,2470.491,13.28,0.015,219.8
2021-06-25T04:46:03,42.805,6.029,0.004,-0.014,-0.014,105.0,107.0,103.0,13.4,1505.2,329.6,-0.7,1.8,2470.486,13.29,0.014,164.1
2021-06-25T04:49:03,42.805,6.029,0.006,0.016,-0.036,105.0,105.0,103.0,13.3,1505.2,329.0,-0.7,1.8,2470.524,13.29,0.017,20.6
2021-06-25T04:52:03,42.805,6.029,-0.01,0.005,-0.008,107.0,106.0,102.0,13.4,1505.2,326.6,-0.8,1.8,2470.563,13.29,0.011,296.6
2021-06-25T04:55:03,42.805,6.029,0.01,-0.013,-0.005,105.0,106.0,103.0,13.4,1505.2,327.1,-0.7,1.8,2470.558,13.29,0.016,142.4
2021-06-25T04:58:03,42.805,6.029,-0.002,-0.006,-0.029,104.0,106.0,102.0,13.4,1505.2,327.9,-0.8,1.8,2470.603,13.29,0.006,198.4
2021-06-25T05:04:03,42.805,6.029,-0.004,-0.003,-0.02,106.0,105.0,103.0,13.4,1505.2,328.1,-0.8,1.9,2470.549,13.28,0.005,233.1
2021-06-25T05:07:03,42.805,6.029,-0.013,-0.025,-0.014,105.0,105.0,103.0,13.3,1505.2,325.7,-0.8,1.8,2470.541,13.28,0.028,207.5
2021-06-25T05:10:03,42.805,6.029,0.008,-0.01,-0.02,105.0,104.0,103.0,13.4,1505.2,327.2,-0.8,1.8,2470.571,13.28,0.012,141.3
2021-06-25T05:13:03,42.805,6.029,-0.009,-0.031,-0.028,105.0,105.0,103.0,13.3,1505.2,326.0,-0.8,1.8,2470.566,13.28,0.032,196.2
2021-06-25T05:16:03,42.805,6.029,0.004,-0.005,0.002,105.0,105.0,102.0,13.3,1505.2,324.9,-0.7,1.8,2470.608,13.28,0.006,141.3
2021-06-25T05:19:03,42.805,6.029,-0.015,-0.008,-0.019,106.0,105.0,104.0,13.3,1505.2,327.0,-0.8,1.8,2470.545,13.28,0.017,241.9
2021-06-25T05:22:03,42.805,6.029,0.0,0.005,0.027,105.0,105.0,103.0,13.3,1505.2,326.8,-0.8,1.8,2470.542,13.28,0.005,0.0
2021-06-25T05:25:03,42.805,6.029,-0.005,-0.005,0.001,105.0,105.0,102.0,13.4,1505.2,324.6,-0.7,1.8,2470.562,13.28,0.007,225.0
2021-06-25T05:28:03,42.805,6.029,0.0,-0.01,-0.031,107.0,103.0,103.0,13.4,1505.2,326.6,-0.7,1.9,2470.555,13.29,0.01,180.0
2021-06-25T05:31:03,42.805,6.029,-0.005,0.0,-0.031,106.0,105.0,103.0,13.4,1505.2,327.0,-0.7,1.8,2470.579,13.28,0.005,270.0
2021-06-25T05:34:03,42.805,6.029,-0.012,0.007,-0.011,106.0,104.0,103.0,13.4,1505.2,325.4,-0.8,1.9,2470.572,13.29,0.013,300.3
2021-06-25T05:37:03,42.805,6.029,0.009,-0.012,-0.002,103.0,103.0,102.0,13.4,1505.2,326.9,-0.7,1.8,2470.596,13.29,0.015,143.1
2021-06-25T05:40:03,42.805,6.029,0.0,-0.006,-0.016,105.0,105.0,101.0,13.3,1505.2,327.2,-0.8,1.8,2470.568,13.29,0.006,180.0
2021-06-25T05:43:03,42.805,6.029,0.005,-0.023,-0.009,105.0,104.0,102.0,13.4,1505.2,329.1,-0.8,1.8,2470.545,13.29,0.023,167.7
2021-06-25T05:46:03,42.805,6.029,-0.016,-0.023,0.0,105.0,104.0,102.0,13.4,1505.2,324.6,-0.8,1.8,2470.609,13.29,0.028,214.8
2021-06-25T05:49:03,42.805,6.029,0.009,-0.003,-0.034,107.0,104.0,103.0,13.4,1505.2,330.5,-0.7,1.8,2470.584,13.29,0.009,108.4
2021-06-25T05:52:03,42.805,6.029,0.004,0.0,0.005,104.0,105.0,104.0,13.4,1505.2,327.9,-0.7,1.8,2470.53,13.29,0.004,90.0
2021-06-25T05:55:03,42.805,6.029,-0.006,-0.018,0.003,106.0,104.0,104.0,13.4,1505.2,326.2,-0.7,1.8,2470.536,13.29,0.018,198.4
2021-06-25T05:58:03,42.805,6.029,-0.007,-0.008,-0.008,105.0,105.0,102.0,13.4,1505.2,326.4,-0.8,1.8,2470.553,13.29,0.01,221.2
2021-06-25T06:04:03,42.805,6.029,0.01,-0.025,-0.012,104.0,104.0,104.0,13.4,1505.2,328.9,-0.7,1.8,2470.579,13.28,0.026,158.2
2021-06-25T06:07:03,42.805,6.029,-0.012,0.013,0.004,104.0,104.0,103.0,13.3,1505.2,325.7,-0.8,1.8,2470.601,13.28,0.017,317.3
2021-06-25T06:10:03,42.805,6.029,0.015,-0.019,0.006,103.0,103.0,104.0,13.3,1505.2,325.9,-0.8,1.8,2470.584,13.28,0.024,141.7
2021-06-25T06:13:03,42.805,6.029,0.007,-0.019,-0.018,105.0,105.0,103.0,13.3,1505.2,329.4,-0.8,1.8,2470.604,13.28,0.02,159.8
2021-06-25T06:16:03,42.805,6.029,0.008,-0.018,-0.023,105.0,105.0,103.0,13.4,1505.2,327.4,-0.8,1.8,2470.59,13.28,0.019,156.0
2021-06-25T06:19:03,42.805,6.029,0.021,-0.016,-0.035,104.0,104.0,102.0,13.3,1505.2,328.3,-0.8,1.8,2470.635,13.28,0.026,127.3
2021-06-25T06:22:03,42.805,6.029,0.013,-0.011,-0.023,106.0,105.0,102.0,13.4,1505.2,324.7,-0.7,1.8,2470.569,13.28,0.017,130.2
2021-06-25T06:25:03,42.805,6.029,-0.012,-0.005,-0.011,104.0,104.0,101.0,13.4,1505.2,328.1,-0.8,1.8,2470.597,13.28,0.013,247.4
2021-06-25T06:28:03,42.805,6.029,-0.004,-0.011,-0.004,104.0,104.0,102.0,13.4,1505.2,328.1,-0.7,1.8,2470.593,13.28,0.011,200.0
2021-06-25T06:31:03,42.805,6.029,-0.008,0.004,0.017,105.0,103.0,103.0,13.4,1505.2,325.1,-0.8,1.8,2470.567,13.29,0.008,296.6
2021-06-25T06:34:03,42.805,6.029,0.01,-0.025,-0.003,105.0,105.0,103.0,13.3,1505.2,327.9,-0.8,1.8,2470.6,13.29,0.026,158.2
2021-06-25T06:37:03,42.805,6.029,0.007,-0.003,-0.007,105.0,104.0,103.0,13.4,1505.2,324.6,-0.8,1.8,2470.567,13.29,0.007,113.2
2021-06-25T06:40:03,42.805,6.029,-0.02,0.001,-0.022,104.0,104.0,103.0,13.4,1505.2,325.3,-0.8,1.8,2470.599,13.29,0.02,272.9
2021-06-25T06:43:03,42.805,6.029,0.0,-0.011,-0.016,107.0,105.0,102.0,13.4,1505.2,327.5,-0.7,1.8,2470.558,13.29,0.011,180.0
2021-06-25T06:46:03,42.805,6.029,-0.006,0.006,-0.049,104.0,105.0,103.0,13.3,1505.2,328.4,-0.7,1.8,2470.629,13.29,0.008,315.0
2021-06-25T06:49:03,42.805,6.029,0.008,0.0,-0.003,106.0,102.0,103.0,13.4,1505.2,325.6,-0.8,1.8,2470.581,13.29,0.008,90.0
2021-06-25T06:52:03,42.805,6.029,0.015,-0.028,-0.033,106.0,104.0,100.0,13.4,1505.2,326.9,-0.8,1.9,2470.598,13.29,0.031,151.8
2021-06-25T06:55:03,42.805,6.029,-0.017,0.001,-0.005,104.0,103.0,103.0,13.4,1505.2,325.9,-0.7,1.8,2470.57,13.29,0.017,273.4
2021-06-25T06:58:03,42.805,6.029,-0.009,0.008,-0.009,105.0,104.0,103.0,13.4,1505.2,326.5,-0.7,1.8,2470.564,13.29,0.012,311.6
2021-06-25T07:04:03,42.805,6.029,0.003,-0.025,-0.004,104.0,105.0,103.0,13.3,1505.2,326.2,-0.8,1.8,2470.615,13.28,0.025,173.2
2021-06-25T07:07:03,42.805,6.029,-0.013,-0.003,0.014,106.0,105.0,103.0,13.3,1505.2,328.3,-0.7,1.8,2470.544,13.28,0.013,257.0
2021-06-25T07:10:03,42.805,6.029,0.022,-0.004,-0.004,107.0,104.0,103.0,13.4,1505.2,324.9,-0.7,1.8,2470.586,13.28,0.022,100.3
2021-06-25T07:13:03,42.805,6.029,0.022,-0.004,0.008,118.0,105.0,102.0,13.4,1505.2,326.0,-0.8,1.8,2470.627,13.28,0.022,100.3
2021-06-25T07:16:03,42.805,6.029,0.0,0.002,-0.014,107.0,104.0,103.0,13.4,1505.2,330.1,-0.8,1.8,2470.6,13.28,0.002,0.0
2021-06-25T07:19:03,42.805,6.029,0.012,-0.006,-0.014,106.0,105.0,103.0,13.3,1505.2,327.6,-0.8,1.8,2470.591,13.28,0.013,116.6
2021-06-25T07:22:03,42.805,6.029,-0.002,-0.011,-0.005,110.0,105.0,103.0,13.4,1505.2,330.0,-0.7,1.9,2470.561,13.28,0.011,190.3
2021-06-25T07:25:03,42.805,6.029,-0.009,0.0,-0.02,105.0,105.0,103.0,13.3,1505.2,326.5,-0.8,1.8,2470.559,13.28,0.009,270.0
2021-06-25T07:28:03,42.805,6.029,-0.004,-0.008,0.014,105.0,104.0,103.0,13.4,1505.2,327.6,-0.8,1.8,2470.56,13.28,0.008,206.6
2021-06-25T07:31:03,42.805,6.029,0.011,-0.027,0.003,105.0,105.0,103.0,13.3,1505.2,328.7,-0.8,1.8,2470.573,13.28,0.029,157.8
2021-06-25T07:34:03,42.805,6.029,0.028,-0.006,0.009,110.0,105.0,103.0,13.4,1505.2,325.9,-0.8,1.8,2470.57,13.28,0.028,102.1
2021-06-25T07:37:03,42.805,6.029,0.008,-0.014,0.006,106.0,105.0,103.0,13.4,1505.2,328.0,-0.8,1.8,2470.569,13.28,0.016,150.3
2021-06-25T07:40:03,42.805,6.029,-0.005,-0.011,-0.02,104.0,105.0,103.0,13.4,1505.2,327.4,-0.7,1.8,2470.563,13.28,0.012,204.4
2021-06-25T07:43:03,42.805,6.029,-0.01,-0.013,-0.035,107.0,104.0,103.0,13.3,1505.2,326.4,-0.7,1.8,2470.567,13.28,0.016,217.6
2021-06-25T07:46:03,42.805,6.029,0.005,-0.029,0.008,105.0,103.0,102.0,13.3,1505.2,326.0,-0.7,1.8,2470.554,13.28,0.029,170.2
2021-06-25T07:49:03,42.805,6.029,0.015,-0.016,0.004,106.0,106.0,103.0,13.4,1505.2,325.8,-0.7,1.8,2470.616,13.28,0.021,136.9
2021-06-25T07:52:03,42.805,6.029,0.014,-0.031,0.023,104.0,106.0,104.0,13.4,1505.2,327.4,-0.7,1.9,2470.561,13.28,0.034,155.7
2021-06-25T07:55:03,42.805,6.029,0.015,-0.023,-0.032,105.0,105.0,102.0,13.3,1505.2,326.5,-0.8,1.8,2470.6,13.28,0.027,146.9
2021-06-25T07:58:03,42.805,6.029,-0.004,-0.005,-0.02,105.0,105.0,103.0,13.3,1505.2,326.9,-0.7,1.8,2470.596,13.28,0.006,218.7
2021-06-25T08:04:03,42.805,6.029,0.016,-0.015,0.017,105.0,104.0,103.0,13.4,1505.2,328.1,-0.8,1.8,2470.554,13.28,0.021,133.1
2021-06-25T08:07:03,42.805,6.029,-0.005,-0.027,-0.005,106.0,107.0,103.0,13.3,1505.2,326.2,-0.7,1.8,2470.604,13.28,0.027,190.5
2021-06-25T08:10:03,42.805,6.029,-0.01,-0.002,0.014,105.0,104.0,102.0,13.4,1505.2,328.3,-0.7,1.8,2470.571,13.28,0.01,258.7
2021-06-25T08:13:03,42.805,6.029,-0.029,-0.003,0.004,105.0,105.0,103.0,13.4,1505.2,326.1,-0.7,1.8,2470.566,13.28,0.029,264.1
2021-06-25T08:16:03,42.805,6.029,-0.012,-0.017,-0.031,105.0,107.0,103.0,13.3,1505.2,328.8,-0.7,1.9,2470.608,13.28,0.02,215.2
2021-06-25T08:19:03,42.805,6.029,-0.002,-0.014,0.004,105.0,104.0,103.0,13.4,1505.2,326.8,-0.7,1.8,2470.564,13.28,0.014,188.1
2021-06-25T08:22:03,42.805,6.029,0.01,-0.014,-0.022,106.0,105.0,103.0,13.4,1505.2,324.6,-0.8,1.8,2470.567,13.28,0.017,144.5
2021-06-25T08:25:03,42.805,6.029,0.013,-0.004,-0.001,104.0,105.0,104.0,13.3,1505.2,326.4,-0.8,1.8,2470.56,13.28,0.013,107.1
2021-06-25T08:28:03,42.805,6.029,0.008,0.0,0.018,107.0,106.0,102.0,13.3,1505.2,327.2,-0.8,1.8,2470.547,13.28,0.008,90.0
2021-06-25T08:31:03,42.805,6.029,0.009,-0.013,-0.027,105.0,106.0,102.0,13.3,1505.2,326.1,-0.8,1.8,2470.534,13.28,0.015,145.3
2021-06-25T08:34:03,42.805,6.029,0.003,-0.014,0.008,105.0,105.0,102.0,13.4,1505.2,330.4,-0.7,1.8,2470.555,13.28,0.014,167.9
2021-06-25T08:37:03,42.805,6.029,0.014,-0.003,-0.009,105.0,105.0,104.0,13.4,1505.2,329.8,-0.8,1.8,2470.516,13.28,0.014,102.1
2021-06-25T08:40:03,42.805,6.029,0.012,-0.012,0.011,106.0,104.0,103.0,13.3,1505.2,328.4,-0.7,1.8,2470.562,13.28,0.016,135.0
2021-06-25T08:43:03,42.805,6.029,0.015,-0.014,-0.019,105.0,107.0,104.0,13.4,1505.2,326.3,-0.8,1.8,2470.549,13.28,0.02,133.0
2021-06-25T08:46:03,42.805,6.029,-0.003,-0.013,-0.018,105.0,105.0,103.0,13.4,1505.2,326.1,-0.8,1.8,2470.526,13.28,0.013,193.0
2021-06-25T08:49:03,42.805,6.029,-0.009,-0.009,-0.01,106.0,106.0,103.0,13.3,1505.2,326.5,-0.8,1.8,2470.537,13.28,0.012,225.0
2021-06-25T08:52:03,42.805,6.029,-0.003,-0.022,0.003,107.0,105.0,104.0,13.4,1505.2,326.0,-0.8,1.8,2470.524,13.28,0.022,187.8
2021-06-25T08:55:03,42.805,6.029,0.005,0.0,0.024,104.0,106.0,103.0,13.3,1505.2,327.2,-0.7,1.8,2470.508,13.28,0.005,90.0
2021-06-25T08:58:03,42.805,6.029,0.018,-0.017,-0.002,105.0,105.0,104.0,13.4,1505.2,326.4,-0.8,1.8,2470.515,13.28,0.024,133.4
2021-06-25T09:04:03,42.805,6.029,0.003,-0.004,-0.015,105.0,104.0,104.0,13.4,1505.2,327.9,-0.8,1.8,2470.542,13.28,0.005,143.1
2021-06-25T09:07:03,42.805,6.029,0.001,-0.016,-0.015,105.0,105.0,103.0,13.3,1505.2,328.7,-0.7,1.8,2470.549,13.28,0.016,176.4
2021-06-25T09:10:03,42.805,6.029,0.0,-0.015,-0.029,105.0,105.0,112.0,13.4,1505.2,329.4,-0.8,1.8,2470.572,13.28,0.015,180.0
2021-06-25T09:13:03,42.805,6.029,0.002,0.002,0.016,104.0,106.0,104.0,13.4,1505.2,325.0,-0.7,1.8,2470.535,13.28,0.002,45.0
2021-06-25T09:16:03,42.805,6.029,-0.011,0.011,0.012,104.0,105.0,103.0,13.3,1505.2,327.7,-0.7,1.8,2470.519,13.28,0.015,315.0
2021-06-25T09:19:03,42.805,6.029,0.0,-0.004,-0.018,106.0,104.0,104.0,13.4,1505.2,330.2,-0.7,1.8,2470.517,13.28,0.004,180.0
2021-06-25T09:22:03,42.805,6.029,0.004,-0.006,0.037,107.0,105.0,102.0,13.4,1505.2,328.0,-0.8,1.8,2470.494,13.28,0.007,146.3
2021-06-25T09:25:03,42.805,6.029,0.006,-0.04,-0.02,107.0,105.0,104.0,13.4,1505.2,329.6,-0.8,1.8,2470.536,13.28,0.04,171.5
2021-06-25T09:28:03,42.805,6.029,0.014,-0.014,-0.035,106.0,104.0,103.0,13.4,1505.2,329.2,-0.7,1.8,2470.505,13.28,0.019,135.0
2021-06-25T09:31:03,42.805,6.029,0.02,-0.011,-0.016,107.0,105.0,103.0,13.4,1505.2,327.0,-0.8,1.8,2470.517,13.28,0.022,118.8
2021-06-25T09:34:03,42.805,6.029,0.011,-0.01,-0.002,105.0,105.0,104.0,13.4,1505.2,328.2,-0.7,1.8,2470.526,13.28,0.014,132.3
2021-06-25T09:37:03,42.805,6.029,0.027,0.011,-0.011,106.0,105.0,103.0,13.4,1505.2,326.8,-0.8,1.8,2470.545,13.28,0.029,67.8
2021-06-25T09:40:03,42.805,6.029,0.009,-0.007,-0.003,105.0,105.0,101.0,13.3,1505.2,327.2,-0.8,1.8,2470.515,13.28,0.011,127.9
2021-06-25T09:43:03,42.805,6.029,0.001,0.022,-0.01,104.0,103.0,103.0,13.3,1505.2,329.2,-0.7,1.8,2470.5,13.28,0.022,2.6
2021-06-25T09:46:03,42.805,6.029,0.009,-0.019,-0.014,105.0,105.0,102.0,13.3,1505.2,328.8,-0.8,1.8,2470.506,13.28,0.021,154.7
2021-06-25T09:49:03,42.805,6.029,0.005,-0.022,0.021,105.0,105.0,102.0,13.4,1505.2,327.2,-0.7,1.8,2470.513,13.28,0.022,167.2
2021-06-25T09:52:03,42.805,6.029,0.023,-0.033,-0.027,105.0,103.0,103.0,13.4,1505.2,325.8,-0.7,1.8,2470.483,13.28,0.04,145.1
2021-06-25T09:55:03,42.805,6.029,0.026,-0.018,-0.029,104.0,104.0,103.0,13.4,1505.2,324.8,-0.8,1.8,2470.494,13.28,0.031,124.7